User: anonymous   Login
Location: ?
(35.4064°N, 139.3593°E)
Time: 08:43:04
(UTC+00:00)
Language:

Resurs 1-4 Rocket - Orbit

View from above orbital plane
View from above orbital plane
View from above satellite
View from above satellite

Ground track
Ground track

The orbit data is extracted from the following two-line orbital elements,

1 25400U 98043G   24166.80473361  .00000120  00000-0  69122-4 0  9993
2 25400  98.7448 107.8698 0010814  55.0618 305.1576 14.25757716348794
Epoch (UTC): 14 June 2024 19:18:48
Eccentricity: 0.0010814
inclination: 98.7448°
perigee height: 798 km
apogee height: 814 km
right ascension of ascending node: 107.8698°
argument of perigee: 55.0618°
revolutions per day: 14.25757716
mean anomaly at epoch: 305.1576°
orbit number at epoch: 34879

The dashed part of the orbit path shows where the satellite is in the earth's shadow,  

DLR